Location: Newark
(51.5114°N, 0.0848°W)
Time: 05:41:49
(UTC+00:00)

N. Korean satellite - Visible Passes

Search period start: 23 October 2019 00:00
Search period end: 02 November 2019 00:00
Orbit: 455 x 508 km, 97.2° (Epoch: 22 October)

Date Brightness Start Highest point End Pass type
(mag) Time Alt. Az. Time Alt. Az. Time Alt. Az.
23 Oct 9.8 05:05:49 10° NE 05:08:26 18° E 05:11:04 10° SE visible
24 Oct 10.5 04:42:18 10° ENE 04:42:52 10° E 04:43:26 10° E visible
25 Oct 7.6 05:47:51 10° NNE 05:51:26 52° E 05:55:02 10° S visible
25 Oct 9.9 18:03:06 10° SW 18:05:24 17° W 18:07:44 10° NW visible
26 Oct 9.0 05:22:49 10° NE 05:26:02 28° E 05:29:14 10° SSE visible
26 Oct 8.8 17:36:47 10° SSW 17:39:53 30° W 17:43:03 10° NNW visible
27 Oct 10.0 04:58:12 10° NE 05:00:30 16° E 05:02:49 10° SE visible
27 Oct 7.2 17:11:03 10° S 17:14:28 60° W 17:17:58 10° NNW visible
28 Oct 6.7 06:05:13 10° NNE 06:08:55 83° ESE 06:12:37 10° SSW visible
28 Oct 10.3 18:21:57 10° WSW 18:23:00 11° W 18:24:05 10° WNW visible
29 Oct 8.1 05:40:01 10° NNE 05:43:32 43° E 05:47:05 10° S visible
29 Oct 9.6 17:54:46 10° SW 17:57:25 20° W 18:00:07 10° NW visible
30 Oct 9.3 05:15:03 10° NE 05:18:05 23° E 05:21:07 10° SSE visible
30 Oct 8.3 17:28:40 10° SSW 17:31:56 37° W 17:35:15 10° NNW visible
31 Oct 10.2 04:50:39 10° ENE 04:52:32 13° E 04:54:25 10° ESE visible
01 Nov 7.1 05:57:18 10° NNE 06:00:59 68° ESE 06:04:42 10° S visible
01 Nov 10.1 18:13:09 10° WSW 18:14:58 14° W 18:16:50 10° WNW visible
